St. Croix, VI

6:18 PM AST on August 20, 2017 (GMT -0400)
Henry E Rohlsen

Weather History for TISX - December, 2012

Change the Weather History Date:

Wednesday, December 12, 2012

  Actual Average Record
Temperature  
Mean Temperature 82 °F 79 °F  
Max Temperature 88 °F 85 °F 89 °F (2013)
Min Temperature 76 °F 74 °F 65 °F (1973)
Degree Days  
Heating Degree Days 0 0  
Month to date heating degree days 0 0  
Since 1 July heating degree days 0 0  
Cooling Degree Days 17 14  
Month to date cooling degree days 187 173  
Year to date cooling degree days 5089 5570  
Growing Degree Days 31 (Base 50)    
Moisture  
Dew Point 69 °F    
Average Humidity 71    
Maximum Humidity 87    
Minimum Humidity 55    
Precipitation  
Precipitation 0.00 in 0.09 in 0.96 in (1962)
Month to date precipitation 1.71 1.31  
Year to date precipitation 28.99 37.01  
Sea Level Pressure  
Sea Level Pressure 29.99 in    
Wind  
Wind Speed 15 mph (ENE)    
Max Wind Speed 25 mph    
Max Gust Speed 31 mph    
Visibility 10 miles    
Events      
T = Trace of Precipitation, MM = Missing Value Source: NWS Daily Summary

Daily Weather History Graph

Daily Weather History Graph

Search for Another Location

Airport or City:

Trip Planner

Search our weather history database for the weather conditions in past years. The results will help you decide how hot, cold, wet, or windy it might be!

Date:

Astronomy

Dec. 12, 2012 Rise Set
Actual Time 6:40 AM AST 5:45 PM AST
Civil Twilight 6:16 AM AST 6:09 PM AST
Nautical Twilight 5:49 AM AST 6:36 PM AST
Astronomical Twilight 5:23 AM AST 7:03 PM AST
Moon 5:43 AM AST (12/12) 5:15 PM AST (12/12)
Length of Visible Light 11h 52m
Length of Day
11h 05m
Waning Crescent, 1% of the Moon is Illuminated
Dec 12
Waning Crescent
Dec 13
New
Dec 20
First Quarter
Dec 28
Full
Jan 4
Last Quarter

Hourly Weather History & Observations

Time (AST) Temp. Heat Index Dew Point Humidity Pressure Visibility Wind Dir Wind Speed Gust Speed Precip Events Conditions
12:53 AM 78.1 °F - 70.0 °F 76% 29.99 in 10.0 mi ENE 11.5 mph - N/A   Scattered Clouds
1:08 AM 78.8 °F - 71.6 °F 78% 29.99 in 10.0 mi ENE 10.4 mph - N/A   Mostly Cloudy
1:19 AM 78.8 °F - 69.8 °F 74% 29.98 in 10.0 mi ENE 15.0 mph - N/A   Scattered Clouds
1:53 AM 77.0 °F - 70.0 °F 79% 29.97 in 10.0 mi ENE 12.7 mph - N/A   Partly Cloudy
2:53 AM 77.0 °F - 70.0 °F 79% 29.96 in 10.0 mi ENE 8.1 mph - N/A   Clear
3:53 AM 75.9 °F - 71.1 °F 85% 29.96 in 10.0 mi ENE 10.4 mph - N/A   Mostly Cloudy
4:53 AM 77.0 °F - 68.0 °F 74% 29.97 in 10.0 mi East 15.0 mph 20.7 mph N/A   Clear
5:53 AM 77.0 °F - 69.1 °F 76% 29.99 in 10.0 mi East 13.8 mph - N/A   Clear
6:53 AM 77.0 °F - 69.1 °F 76% 30.01 in 10.0 mi ENE 9.2 mph - N/A   Clear
7:53 AM 80.1 °F 83.2 °F 70.0 °F 71% 30.02 in 10.0 mi East 15.0 mph 19.6 mph N/A   Partly Cloudy
8:53 AM 82.9 °F 87.0 °F 70.0 °F 65% 30.04 in 10.0 mi East 17.3 mph 25.3 mph N/A   Partly Cloudy
9:53 AM 84.9 °F 88.8 °F 69.1 °F 59% 30.04 in 10.0 mi East 17.3 mph 26.5 mph N/A   Partly Cloudy
10:53 AM 86.0 °F 90.7 °F 70.0 °F 59% 30.04 in 10.0 mi ESE 17.3 mph 24.2 mph N/A   Partly Cloudy
11:53 AM 87.1 °F 92.0 °F 70.0 °F 57% 30.02 in 10.0 mi East 20.7 mph 27.6 mph N/A   Partly Cloudy
12:53 PM 87.1 °F 91.3 °F 69.1 °F 55% 30.00 in 10.0 mi East 21.9 mph 31.1 mph N/A   Clear
1:53 PM 87.1 °F 91.3 °F 69.1 °F 55% 29.98 in 10.0 mi ESE 21.9 mph 31.1 mph N/A   Scattered Clouds
2:53 PM 86.0 °F 90.1 °F 69.1 °F 57% 29.96 in 10.0 mi East 18.4 mph 26.5 mph N/A   Scattered Clouds
3:53 PM 82.0 °F 85.5 °F 69.1 °F 65% 29.95 in 10.0 mi ENE 16.1 mph 26.5 mph N/A   Scattered Clouds
4:53 PM 81.0 °F 84.1 °F 69.1 °F 67% 29.96 in 10.0 mi ENE 15.0 mph 24.2 mph N/A   Scattered Clouds
5:53 PM 80.1 °F 82.9 °F 69.1 °F 69% 29.97 in 10.0 mi East 15.0 mph 21.9 mph N/A   Partly Cloudy
6:53 PM 79.0 °F - 70.0 °F 74% 29.97 in 10.0 mi ENE 16.1 mph 21.9 mph N/A   Scattered Clouds
7:53 PM 79.0 °F - 66.9 °F 66% 29.98 in 10.0 mi ENE 15.0 mph 23.0 mph N/A   Clear
8:53 PM 78.1 °F - 66.9 °F 68% 30.00 in 10.0 mi ENE 13.8 mph 19.6 mph N/A   Scattered Clouds
9:53 PM 78.1 °F - 64.9 °F 64% 30.01 in 10.0 mi ENE 12.7 mph - N/A   Clear
10:53 PM 78.1 °F - 66.0 °F 66% 30.00 in 10.0 mi ENE 9.2 mph - N/A   Clear
11:53 PM 78.1 °F - 68.0 °F 71% 29.99 in 10.0 mi ENE 8.1 mph - N/A   Clear